Location: Aldenham
(51.6667°N, 0.3500°W)
Time: 08:45:30
(UTC+00:00)

Explorer 7 - Pass Details

Date: 15 February 2026
Orbit: 430 x 541 km, 50.2° (Epoch: 12 March)

Event Time Altitude Azimuth Distance (km) Brightness Sun altitude
Rises 19:22:40 0° 272° (W) 2,521 11.8 -20.1°
Reaches altitude 10° 19:24:48 10° 270° (W) 1,662 10.5 -20.5°
Maximum altitude 19:28:33 69° 186° (S) 534 6.6 -21.0°
Enters shadow 19:28:44 68° 163° (SSE) 541 6.6 -21.1°
Drops below altitude 10° 19:32:27 10° 104° (ESE) 1,731 - -21.6°
Sets 19:34:42 0° 102° (ESE) 2,636 - -22.0°
